{"data":{"norad_id":52757,"epoch":"2026-05-24T22:42:09.000000Z","epoch_age_seconds":90309,"freshness":"FRESH","line1":"1 52757U 22057AB  26144.94593750  .00017008  00000+0  30016-3 0  9999","line2":"2 52757  97.6574 302.3163 0005957 147.2075 212.9546 15.50440218222742","mean_motion":15.50440218,"eccentricity":0.0005957,"inclination_deg":97.6574,"raan_deg":302.3163,"arg_perigee_deg":147.2075,"mean_anomaly_deg":212.9546,"bstar":0.00030016,"rev_number":22274,"period_min":92.876847703134,"perigee_km":411.39289323964,"apogee_km":419.48676067128,"semimajor_km":6793.5768269555,"source":"CELESTRAK","updated_at":"2026-05-25T13:38:24.929253Z"}}